Saturday, October 25, 2014
06:23 UTC
  |  Log In   |  Register Free
Airport Search:

Coffeyville Municipal Airport
(KCFV)

Coffeyville Municipal Airport Diagram
No Airport Diagram Available

FAA data valid effective September 18, 2014 - November 13, 2014 (unless otherwise noted).

 
 
 
 
 
 
 
 
 
 
 
 
 
 

Current Aviation Weather for Coffeyville Municipal Airport (KCFV)

The most recent METAR observation for KCFV was updated at: 0610
METAR Summary (Translated METAR)
KCFV
250552Z AUTO 19005KT 10SM CLR 17/16 A3002 RMK AO2 SLP162 T01670156 10206 20167 402390111 58002
KIDP
250555Z AUTO 19005KT 1 1/2SM BR VV007 16/15 A3002 RMK AO2
(10.6 nm NW from KCFV)
KPPF
250552Z AUTO 18004KT 10SM CLR 17/16 A3003 RMK AO2 SLP163 T01670156 10211 20167 402440122 58002
(14.6 nm NE from KCFV)
TAF
No TAF information found within 50 nm of KCFV
  Airport Weather Conditions for KCFV

 Current Weather at CFV
62° F
Fair
South winds at 5.8 mph
CFV NOAA Radar

Pressure: 30.02 in
Humidity: 93%
Wind: South at 5.8 MPH (5 KT)
Dew Point: 60.1°F
Visibility: 10.00 mi


Airport Weather Forecast for KCFV

Translated METAR and TAF for KCFV
Translated METAR for KCFV (0618 UTC 25 October 2014)
found at http://aviationweather.gov/adds/metars/
 
METAR text: KCFV 250552Z AUTO 19005KT 10SM CLR 17/16 A3002 RMK AO2 SLP162 T01670156 10206 20167 402390111 58002
Conditions at: KCFV (COFFEYVILLE , KS, US) observed 0552 UTC 25 October 2014
Temperature: 16.7°C (62°F)
Dewpoint: 15.6°C (60°F) [RH = 93%]
Pressure (altimeter): 30.02 inches Hg (1016.7 mb)
[Sea-level pressure: 1016.2 mb]
Winds: from the S (190 degrees) at 6 MPH (5 knots; 2.6 m/s)
Visibility: 10 or more miles (16+ km)
Ceiling: at least 12,000 feet AGL
Clouds: sky clear below 12,000 feet AGL
Weather: automated observation with no human augmentation;
there may or may not be significant weather present at this time
Translated TAF for KCFV

There is no translated TAF available for this airport

Find All Airport Services Find A Hotel Find A Rental Car Find A Golf Course Find A Restaurant $100 Hamburger



FBO's on the Field
FBO Company Facility Photos Services Transportation Aviation Fuel Prices: Prices include tax
Catering Weather Repair Courtesy Rental Type 100LL JetA JetA+ MOGAS 8087
 
Coffeyville Aircraft, Inc

This FBO has not yet been rated
FS: Phillips 66
Last Updated: Sep-26
Login to update fuel prices
SS:
Contact Coffeyville Aircraft, IncMore FBO Information
 
Add another FBO Facility Photos Catering Weather Repair Courtesy Rental Type 100LL JetA JetA+ MOGAS 8087
Services Transportation Aviation Fuel Prices: Prices include tax


model-print
model-print
model-print
model-print